Forside
METAR-TAF:

METAR-TAF

Lufthavne :

Clintonville, Wisconsin, USA

Breddekreds: 44-36-50N, længdekreds: 088-43-53W, højde: 251 m

Aktuelle vejr

Denne rapport blev lavet for 15 minutter siden, kl. 08:15 UTC
Vind stille
Temperatur -4°C
Fugtighed 74%
Tryk 1027 hPa
Sigt: 16.1 km
skyfri

METAR: KCLI 270815Z AUTO 00000KT 10SM CLR M04/M08 A3032 RMK AO2 T10401080

Tid: 03:30 (08:30 UTC)


TAF: fraværende

Vejrobservationer og prognoser fra mere end 4000 lufthavne (METAR og TAF).

De gule og røde prikker repræsenterer de meteorologiske stationer.

Flyt musen over at se navnet på stationen.

Så klik over at se vejr observationer og prognoser.

At skifte det kort: Klik på de grønne knapper med et sort kors for at zoome ind; på den grønne knap med en bindestreg for at zoome ud; eller på de grønne pile for tilstødende kort.


METAR-TAF: